Flag for U.S.A. Weather past 2 weeks in Lewiston, Idaho, U.S.A.

Now
54 °F

Scattered clouds.


Feels Like: 51 °F
Forecast: 42 / 56 °F
Wind: 10 mph from West

Location: Lewiston-Nez Perce County Airport

Current Time: Apr 25, 2015 at 11:46:52 AM

Latest Report: Apr 25, 2015 at 10:56 AM


Visibility: 10 mi

Pressure: 29.90 "Hg

Humidity: 47%

Dew point: 34 °F

Location of LewistonLocation

Historic Weather in Lewiston — Graph

°F

Lewiston temperature yesterday

Maximum temperature yesterday: 59 °F (at 2:56 PM)
Minimum temperature yesterday: 43 °F (at 10:56 PM)
Average temperature yesterday: 51 °F

Past Weeks' High & Low Weather Summary

 TemperatureHumidityPressure
High79 °F (Apr 21, 4:56 PM)93% (Apr 24, 2:56 AM)30.45 "Hg (Apr 24, 2:56 AM)
Low33 °F (Apr 15, 5:56 AM)17% (Apr 18, 5:56 PM)29.71 "Hg (Apr 13, 5:56 PM)
Average53 °F49%30.01 "Hg
* Reported Apr 10 9:56 AM — Apr 25 9:56 AM, Lewiston, Weather by CustomWeather, © 2015

Note: Actual official high and low records may vary slightly from our data, if they occured in-between our weather recording intervals... More about our weather records

Advertising

Lewiston weather history for previous 24 hours

 ConditionsComfort  
Time TempWeatherWind HumidityBarometerVisibility
9:56 AM
Sat, Apr 25
48 °FMostly cloudy.3 mph61%29.90 "Hg10 mi
8:56 AM46 °FOvercast.No wind66%29.90 "Hg10 mi
7:56 AM43 °FScattered clouds.No wind68%29.90 "Hg10 mi
6:56 AM42 °FPassing clouds.No wind71%29.88 "Hg10 mi
5:56 AM37 °FClear.No wind79%29.88 "Hg10 mi
4:56 AM40 °FPassing clouds.3 mph68%29.86 "Hg10 mi
3:56 AM39 °FPassing clouds.3 mph70%29.85 "Hg10 mi
2:56 AM41 °FClear.No wind67%29.84 "Hg10 mi
1:56 AM43 °FClear.No wind58%29.84 "Hg10 mi
12:56 AM42 °FClear.No wind62%29.84 "Hg10 mi
11:56 PM
Fri, Apr 24
43 °FClear.No wind62%29.84 "Hg10 mi
10:56 PM43 °FClear.5 mph62%29.83 "Hg10 mi
9:56 PM45 °FClear.5 mph58%29.83 "Hg10 mi
8:56 PM52 °FClear.5 mph38%29.80 "Hg10 mi
7:56 PM54 °FPartly sunny.10 mph35%29.79 "Hg10 mi
6:56 PM56 °FMostly cloudy.No wind36%29.78 "Hg10 mi
5:56 PM57 °FOvercast.8 mph32%29.78 "Hg10 mi
3:56 PM58 °FOvercast.6 mph31%29.79 "Hg10 mi
2:56 PM59 °FPartly sunny.3 mph31%29.79 "Hg10 mi
1:56 PM57 °FMostly cloudy.No wind32%29.80 "Hg10 mi
12:56 PM55 °FBroken clouds.5 mph39%29.80 "Hg10 mi
11:56 AM54 °FBroken clouds.3 mph47%29.82 "Hg10 mi
Weather by CustomWeather, © 2015

See weather overviewHow to use our weather pages